Showing default

GONETS D1 2, 23788

Orbit data source: Space-Track

GONETS D1 2, 23788 is a payload satellite owned by Gonets (CIS) in LEO that was launched on Mon, 19 Feb 1996 UTC via a TSIKLON-3 launch vehicle from the Plesetsk Missile And Space Complex (PKMTR). Payloads include a variety of satellites, spacecraft, and rockets equipped with specific instruments for various scientific and technological missions. These include communications satellites like Starlink; space stations such as the ISS; scientific satellites like the Hubble; Earth observation satellites from companies like Planet Labs, Umbra, and HawkEye 360; GPS; miniature CubeSats for education and research; and military/defense satellites.

Loading next visibility...
GONETS D1 2 details
Identifier
23788, 1996-009B
Orbit
LEO
Last TLE update13 hours ago
Origin
Flag of CISGonets (CIS)
ManufacturerNPO PM
MissionNon-operational Civil Communications
Bus & MotorSTRELA-3, Unknown motor
Mass225 kg wet, 225 kg dry
Launch date (UTC)
1996-02-19 (29 years ago)
Launch vehicle
TSIKLON-3
Launch site
Plesetsk Missile And Space Complex (PKMTR)
Object type
Payload
Rocket body
Debris
Shape & HBRCyl + 1 Ant, 7 m
Radar Cross Section1.798 m², Medium (>0.1 m² and < 1m²)

Expand to show TLE details & history

TLE from 13 hours ago
0 GONETS D1 2
1 23788U 96009B   24361.23243388  .00000015  00000-0  23487-4 0  9995
2 23788  82.5705 288.6947 0006197 202.8791 157.2025 12.63197284330172
Epoch: 2024-12-26T05:34Z
Definitive object data (Epoch: 2024-12-26T05:34:42.287Z)
Latitude-0.00004°
Longitude109.80372°
Altitude1,416.957 km
Speed7.15 km/s
True Right ascension19h 14m 46s
True Declination0° 00' 00"
Sunlit
Object was in daylight at TLE epoch
Visualization TLE readout
Latitude-75.94252°
Longitude-39.32376°
Altitude1,434.54 km
Speed7.145 km/s
Apparent Right ascension06h 40m 21s
Apparent Declination-61° 52' 23"
Sunlit
Object is in daylight
Visualization observer readout
Local Sidereal Time17:43:10
Azimuth196.894° SSW
Elevation-66.386°
Doppler factor1
Orbital elements
Apogee altitude1,411.92 km
Perigee altitude1,402.271 km
Semi-major axis7,785.232 km
Eccentricity0.0006197
Inclination82.5705°
RAAN288.6947°
Arg. of periapsis202.8791°
True anomaly157.23°
Mean anomaly157.2025°
Eccentric anomaly157.21625°
Mean motion3.15963 °/min
BSTAR0.000023487
Orbital period113.94 mins
Loading maneuver chart data...
Loading historical data...
Loading historical data...
Loading historical data...
Loading historical data...
Loading historical data...
Loading historical data...
Loading historical data...

GONETS D1 2 Visibility forecast

Observer location: undefined°, undefined

Span
Click to sort rows by Start time (UTC) header in descending order
Start Az.
Max El. time (UTC)
Max El. Az.
Max El.
End time (UTC)
End Az.
14 mins2024-12-26 18:58:41.641Z144.695° SSE2024-12-26 19:05:41.641Z86.268° E29.024°2024-12-26 19:12:41.641Z26.226° NE
14 mins2024-12-26 20:53:41.641Z213.882° SW2024-12-26 21:00:41.641Z290.639° WNW37.087°2024-12-26 21:07:41.641Z355.76° N
4 mins2024-12-27 05:03:41.641Z50.235° ENE2024-12-27 05:04:41.641Z57.732° ENE12.077°2024-12-27 05:07:41.641Z79.658° E
15 mins2024-12-27 06:54:41.641Z359.227° N2024-12-27 07:01:41.641Z90.546° ESE42.94°2024-12-27 07:09:41.641Z163.295° S
10 mins2024-12-27 08:50:41.641Z320.118° NNW2024-12-27 08:55:41.641Z277.61° WNW21.558°2024-12-27 09:00:41.641Z236.136° WSW
|